period_start,C,m1,H,J0,J1,J2,J3,J4,J5,JA,JB,JC,JD,JJ,JK,JN,#
2016-02-09 00:02:02,0.03,2.93,0.00,18.71,22.91,26.87,14.76,48.36,1013.74,2050.01,2501.00,2442.10,2756.20,599.82,602.81,25.19,0000 0000 0000 0000 000000
2016-02-09 00:07:04,0.01,2.93,0.00,18.68,22.89,26.85,14.82,48.39,1013.72,2050.01,2500.63,2442.00,2756.00,599.95,603.14,25.24,0000 0000 0000 0000 000000
2016-02-09 00:12:05,0.01,2.93,0.00,18.67,22.88,26.84,14.76,48.53,1013.70,2050.02,2500.13,2442.00,2756.00,599.89,603.16,25.29,0000 0000 0000 0000 000000
2016-02-09 00:17:07,0.00,2.93,0.00,18.65,22.87,26.79,14.74,48.48,1013.69,2050.08,2500.00,2442.00,2755.99,599.92,603.14,25.34,0000 0000 0000 0000 000000
2016-02-09 00:22:08,0.03,2.93,0.00,18.67,22.85,26.80,14.66,48.56,1013.69,2050.37,2500.00,2441.99,2755.97,600.01,603.09,25.39,0000 0000 0000 0000 000000
2016-02-09 00:27:09,0.04,2.93,0.00,18.67,22.84,26.76,14.81,48.62,1013.69,2050.61,2499.86,2441.92,2755.72,600.06,603.21,25.44,0000 0000 0000 0000 000000
2016-02-09 00:32:10,0.07,2.93,0.00,18.65,22.83,26.77,14.81,48.69,1013.69,2050.75,2499.39,2441.51,2755.19,600.10,603.29,25.49,0000 0000 0000 0000 000000
2016-02-09 00:37:12,0.02,2.94,0.00,18.64,22.82,26.74,14.73,48.58,1013.70,2050.86,2499.01,2441.03,2755.00,600.07,603.23,25.54,0000 0000 0000 0000 000000
2016-02-09 00:42:13,0.00,2.94,0.00,18.63,22.81,26.77,14.71,48.28,1013.70,2050.95,2498.98,2441.00,2754.99,600.19,603.36,25.59,0000 0000 0000 0000 000000
2016-02-09 00:47:14,0.02,2.94,0.00,18.61,22.80,26.77,14.80,48.66,1013.69,2050.96,2498.46,2440.99,2754.87,600.50,603.74,25.64,0000 0000 0000 0000 000000
2016-02-09 00:52:15,0.02,2.94,0.00,18.59,22.79,26.70,14.83,48.64,1013.69,2050.98,2498.00,2440.87,2754.17,600.18,603.47,25.69,0000 0000 0000 0000 000000
2016-02-09 00:57:17,0.02,2.94,0.00,18.60,22.78,26.69,14.83,48.47,1013.69,2050.99,2497.97,2440.36,2754.01,600.10,603.48,25.74,0000 0000 0000 0000 000000
2016-02-09 01:02:18,0.02,2.94,0.00,18.56,22.77,26.68,14.71,48.45,1013.69,2050.99,2497.42,2440.04,2754.00,599.98,603.37,25.79,0000 0000 0000 0000 000000
2016-02-09 01:07:19,0.00,2.94,0.00,18.55,22.77,26.70,14.86,48.74,1013.69,2050.99,2497.02,2440.00,2753.88,600.24,603.51,25.84,0000 0000 0000 0000 000000
2016-02-09 01:12:20,0.01,2.94,0.00,18.54,22.75,26.71,14.80,48.52,1013.71,2050.99,2497.00,2439.99,2753.33,599.97,603.39,25.89,0000 0000 0000 0000 000000
2016-02-09 01:17:22,0.01,2.94,0.00,18.54,22.74,26.70,14.81,48.63,1013.72,2050.99,2496.93,2439.93,2753.02,599.94,603.43,25.94,0000 0000 0000 0000 000000
2016-02-09 01:22:23,0.02,2.94,0.00,18.53,22.74,26.65,14.69,48.27,1013.70,2050.99,2496.27,2439.71,2753.00,599.40,602.87,25.99,0000 0000 0000 0000 000000
2016-02-09 01:27:24,0.02,2.95,0.00,18.52,22.72,26.69,14.82,48.55,1013.69,2050.99,2496.03,2439.20,2752.99,600.25,603.70,26.04,0000 0000 0000 0000 000000
2016-02-09 01:32:26,0.01,2.95,0.00,18.52,22.72,26.64,14.75,48.55,1013.69,2050.99,2495.99,2439.01,2752.80,599.98,603.46,26.09,0000 0000 0000 0000 000000
2016-02-09 01:37:27,0.01,2.95,0.00,18.51,22.70,26.64,14.70,48.58,1013.69,2050.99,2495.94,2439.00,2752.25,599.61,603.18,26.14,0000 0000 0000 0000 000000
2016-02-09 01:42:28,0.02,2.95,0.00,18.49,22.69,26.57,14.75,48.51,1013.68,2051.00,2495.20,2438.98,2752.01,599.84,603.33,26.19,0000 0000 0000 0000 000000
2016-02-09 01:47:30,0.01,2.95,0.00,18.49,22.69,26.61,14.74,48.44,1013.68,2051.00,2495.01,2438.88,2752.00,599.77,603.30,26.24,0000 0000 0000 0000 000000
2016-02-09 01:52:31,0.03,2.95,0.00,18.47,22.68,26.56,14.81,48.76,1013.69,2051.01,2494.89,2438.22,2751.96,600.32,603.88,26.29,0000 0000 0000 0000 000000
2016-02-09 01:57:33,0.03,2.95,0.00,18.47,22.67,26.53,14.78,48.71,1013.69,2051.01,2494.14,2438.01,2751.40,600.17,603.79,26.34,0000 0000 0000 0000 000000
2016-02-09 02:02:34,0.00,2.95,0.00,18.48,22.67,26.54,14.83,48.60,1013.69,2051.01,2494.00,2437.99,2751.02,600.51,604.04,26.39,0000 0000 0000 0000 000000
2016-02-09 02:07:35,0.00,2.95,0.00,18.48,22.66,26.55,14.75,48.67,1013.68,2051.04,2493.96,2437.98,2751.00,599.92,603.50,26.44,0000 0000 0000 0000 000000
2016-02-09 02:12:37,0.03,2.95,0.00,18.47,22.64,26.61,14.76,48.61,1013.67,2051.05,2493.45,2437.79,2750.99,599.83,603.37,26.49,0000 0000 0000 0000 000000
2016-02-09 02:17:38,0.03,2.96,0.00,18.46,22.64,26.57,14.80,48.56,1013.65,2051.06,2493.01,2437.22,2750.94,600.21,603.74,26.54,0000 0000 0000 0000 000000
2016-02-09 02:22:40,0.02,2.96,0.00,18.47,22.63,26.50,14.79,48.69,1013.69,2051.07,2492.91,2437.01,2750.23,600.02,603.57,26.59,0000 0000 0000 0000 000000
2016-02-09 02:27:41,0.04,2.96,0.00,18.47,22.62,26.47,14.87,48.79,1013.69,2051.21,2492.24,2437.00,2750.02,600.47,604.08,26.64,0000 0000 0000 0000 000000
2016-02-09 02:32:42,0.00,2.96,0.00,18.47,22.62,26.46,14.82,48.69,1013.67,2051.27,2492.01,2436.97,2750.00,600.29,603.93,26.69,0000 0000 0000 0000 000000
2016-02-09 02:37:43,0.02,2.96,0.00,18.45,22.62,26.53,14.71,48.73,1013.68,2051.36,2491.99,2436.74,2749.93,599.41,603.07,26.74,0000 0000 0000 0000 000000
2016-02-09 02:42:44,0.06,2.96,0.00,18.45,22.61,26.51,14.77,48.48,1013.61,2051.41,2491.48,2436.13,2749.39,600.21,603.75,26.79,0000 0000 0000 0000 000000
2016-02-09 02:47:46,0.05,2.97,0.00,18.45,22.60,26.51,14.77,48.48,1013.58,2051.78,2491.04,2436.02,2749.08,599.80,603.33,26.84,0000 0000 0000 0000 000000
2016-02-09 02:52:47,-0.01,2.97,0.00,18.46,22.60,26.53,14.80,48.73,1013.47,2051.81,2491.00,2436.00,2749.01,599.93,603.27,26.89,0000 0000 0000 0000 000000
2016-02-09 02:57:48,0.03,2.97,0.00,18.44,22.59,26.46,14.78,48.73,1013.33,2051.82,2490.55,2435.97,2748.93,600.41,603.76,26.94,0000 0000 0000 0000 000000
2016-02-09 03:02:50,0.07,2.97,0.00,18.43,22.59,26.48,14.82,48.95,1013.26,2051.93,2490.03,2435.44,2748.25,600.29,603.70,26.99,0000 0000 0000 0000 000000
2016-02-09 03:07:51,0.01,2.97,0.00,18.44,22.59,26.50,14.78,48.83,1013.43,2051.96,2489.92,2435.03,2748.01,600.09,603.59,27.04,0000 0000 0000 0000 000000
2016-02-09 03:12:53,0.02,2.97,0.00,18.45,22.59,26.46,14.71,48.77,1013.64,2051.91,2489.19,2434.99,2747.94,599.52,603.11,27.09,0000 0000 0000 0000 000000
2016-02-09 03:17:54,0.02,2.97,0.00,18.45,22.59,26.47,14.85,48.73,1013.68,2051.93,2488.99,2434.91,2747.43,600.34,603.85,27.15,0000 0000 0000 0000 000000
2016-02-09 03:22:55,0.02,2.98,0.00,18.44,22.58,26.46,14.79,48.55,1013.69,2051.96,2488.92,2434.49,2747.03,599.95,603.54,27.20,0000 0000 0000 0000 000000
2016-02-09 03:27:56,0.03,2.98,0.00,18.47,22.57,26.48,14.84,48.83,1013.69,2051.96,2488.18,2434.02,2746.99,600.31,603.81,27.25,0000 0000 0000 0000 000000
2016-02-09 03:32:58,0.01,2.98,0.00,18.47,22.57,26.48,14.82,48.86,1013.70,2051.96,2487.99,2434.00,2746.73,600.20,603.73,27.30,0000 0000 0000 0000 000000
2016-02-09 03:37:59,0.02,2.98,0.00,18.47,22.57,26.46,14.71,48.81,1013.70,2051.98,2487.78,2433.95,2746.12,599.91,603.47,27.35,0000 0000 0000 0000 000000
2016-02-09 03:43:01,0.03,2.98,0.00,18.45,22.57,26.48,14.81,49.02,1013.69,2051.98,2487.09,2433.61,2746.01,600.00,603.53,27.40,0000 0000 0000 0000 000000
2016-02-09 03:48:02,0.01,2.98,0.00,18.47,22.57,26.46,14.70,48.78,1013.69,2051.98,2486.98,2433.10,2745.98,599.65,603.24,27.45,0000 0000 0000 0000 000000
2016-02-09 03:53:03,0.04,2.98,0.00,18.51,22.57,26.44,14.75,48.86,1013.69,2051.98,2486.33,2433.00,2745.46,599.82,603.30,27.50,0000 0000 0000 0000 000000
2016-02-09 03:58:04,0.01,2.98,0.00,18.51,22.57,26.42,14.69,48.67,1013.69,2051.95,2486.00,2432.93,2745.01,599.56,603.10,27.55,0000 0000 0000 0000 000000
2016-02-09 04:03:05,0.03,2.99,0.00,18.50,22.57,26.46,14.81,48.77,1013.69,2051.97,2485.91,2432.32,2744.98,599.74,603.21,27.60,0000 0000 0000 0000 000000
2016-02-09 04:08:06,0.03,2.99,0.00,18.52,22.57,26.48,14.73,48.62,1013.69,2051.99,2485.20,2432.01,2744.64,599.77,603.16,27.65,0000 0000 0000 0000 000000
2016-02-09 04:13:08,0.00,2.99,0.00,18.53,22.58,26.50,14.72,48.48,1013.69,2051.98,2485.00,2432.00,2744.06,599.96,603.33,27.70,0000 0000 0000 0000 000000
2016-02-09 04:18:09,0.01,2.99,0.00,18.53,22.59,26.51,14.77,48.69,1013.70,2051.98,2484.86,2431.97,2744.00,599.77,603.19,27.75,0000 0000 0000 0000 000000
2016-02-09 04:23:10,0.04,2.99,0.00,18.56,22.59,26.49,14.85,48.63,1013.69,2051.97,2484.11,2431.42,2743.91,600.34,603.74,27.80,0000 0000 0000 0000 000000
2016-02-09 04:28:12,0.02,2.99,0.00,18.57,22.59,26.47,14.78,48.63,1013.69,2051.94,2483.98,2431.01,2743.16,600.16,603.45,27.85,0000 0000 0000 0000 000000
2016-02-09 04:33:12,0.01,2.99,0.00,18.58,22.61,26.48,14.70,48.65,1013.69,2051.94,2483.63,2431.00,2743.00,599.80,603.04,27.90,0000 0000 0000 0000 000000
2016-02-09 04:38:13,-0.00,2.99,0.00,18.62,22.62,26.46,14.73,48.50,1013.69,2051.80,2483.03,2430.90,2742.88,599.97,603.21,27.95,0000 0000 0000 0000 000000
2016-02-09 04:43:15,0.01,2.99,0.00,18.62,22.63,26.53,14.75,48.56,1013.70,2051.54,2482.91,2430.19,2742.13,600.23,603.49,28.00,0000 0000 0000 0000 000000
2016-02-09 04:48:16,0.03,3.00,0.00,18.60,22.64,26.55,14.76,48.72,1013.69,2051.54,2482.14,2430.00,2741.99,600.36,603.57,28.05,0000 0000 0000 0000 000000
2016-02-09 04:53:17,0.01,3.00,0.00,18.62,22.64,26.53,14.81,48.74,1013.70,2051.57,2481.98,2429.98,2741.85,600.13,603.40,28.10,0000 0000 0000 0000 000000
2016-02-09 04:58:19,0.03,3.00,0.00,18.63,22.66,26.52,14.71,48.53,1013.71,2051.29,2481.47,2429.43,2741.09,599.60,602.96,28.15,0000 0000 0000 0000 000000
2016-02-09 05:03:20,0.01,3.00,0.00,18.63,22.67,26.53,14.81,48.67,1013.70,2051.28,2481.01,2429.02,2741.00,600.57,603.86,28.20,0000 0000 0000 0000 000000
2016-02-09 05:08:21,0.01,3.00,0.00,18.64,22.67,26.56,14.79,48.67,1013.70,2051.34,2480.96,2429.00,2740.95,600.07,603.27,28.25,0000 0000 0000 0000 000000
2016-02-09 05:13:22,0.02,3.00,0.00,18.64,22.69,26.52,14.71,48.73,1013.70,2051.18,2480.31,2428.92,2740.24,599.76,603.12,28.30,0000 0000 0000 0000 000000
2016-02-09 05:18:23,0.03,3.00,0.00,18.64,22.69,26.58,14.70,48.63,1013.69,2051.08,2480.00,2428.20,2740.00,599.71,602.96,28.35,0000 0000 0000 0000 000000
2016-02-09 05:23:24,0.02,3.00,0.00,18.64,22.70,26.59,14.69,48.43,1013.70,2051.05,2479.73,2428.00,2739.71,599.63,602.82,28.40,0000 0000 0000 0000 000000
2016-02-09 05:28:25,0.02,3.00,0.00,18.64,22.72,26.60,14.79,48.52,1013.74,2051.03,2479.08,2427.98,2739.08,599.84,603.07,28.45,0000 0000 0000 0000 000000
2016-02-09 05:33:27,0.02,3.01,0.00,18.63,22.72,26.63,14.76,48.59,1013.89,2051.00,2478.99,2427.50,2739.00,600.19,603.59,28.50,0000 0000 0000 0000 000000
2016-02-09 05:38:28,0.02,3.01,0.00,18.64,22.72,26.65,14.75,48.53,1013.94,2051.02,2478.80,2427.06,2738.84,599.98,603.34,28.55,0000 0000 0000 0000 000000
2016-02-09 05:43:29,0.03,3.01,0.00,18.65,22.72,26.65,14.69,48.49,1014.05,2051.01,2478.10,2427.00,2738.17,599.94,603.33,28.60,0000 0000 0000 0000 000000
2016-02-09 05:48:30,0.00,3.01,0.00,18.67,22.74,26.59,14.82,48.52,1014.13,2051.00,2478.00,2426.98,2738.01,600.12,603.53,28.65,0000 0000 0000 0000 000000
2016-02-09 05:53:31,0.01,3.01,0.00,18.69,22.74,26.65,14.71,48.46,1014.16,2051.00,2477.97,2426.79,2737.99,599.70,603.14,28.70,0000 0000 0000 0000 000000
2016-02-09 05:58:33,0.04,3.01,0.00,18.69,22.74,26.69,14.79,48.60,1014.16,2051.00,2477.56,2426.22,2737.87,600.05,603.44,28.75,0000 0000 0000 0000 000000
2016-02-09 06:03:34,0.03,3.01,0.00,18.69,22.74,26.64,14.79,48.52,1014.17,2051.00,2477.03,2426.01,2737.13,600.06,603.51,28.80,0000 0000 0000 0000 000000
2016-02-09 06:08:36,0.00,3.01,0.00,18.68,22.74,26.64,14.76,48.50,1014.18,2051.00,2476.99,2426.00,2737.02,599.94,603.24,28.85,0000 0000 0000 0000 000000
2016-02-09 06:13:37,0.00,3.01,0.00,18.68,22.75,26.66,14.77,48.59,1014.19,2051.00,2476.83,2425.98,2736.99,599.62,602.98,28.90,0000 0000 0000 0000 000000
2016-02-09 06:18:38,0.03,3.01,0.00,18.69,22.75,26.60,14.84,48.60,1014.19,2051.00,2476.17,2425.70,2736.84,600.60,604.04,28.95,0000 0000 0000 0000 000000
2016-02-09 06:23:40,0.03,3.02,0.00,18.70,22.75,26.66,14.78,48.51,1014.20,2051.00,2476.00,2425.12,2736.16,599.84,603.20,29.00,0000 0000 0000 0000 000000
2016-02-09 06:28:41,0.00,3.02,0.00,18.69,22.75,26.64,14.71,48.38,1014.21,2051.00,2475.88,2425.00,2736.00,600.06,603.54,29.05,0000 0000 0000 0000 000000
2016-02-09 06:33:42,0.02,3.02,0.00,18.71,22.76,26.67,14.73,48.49,1014.21,2051.00,2475.18,2425.00,2735.99,599.72,603.14,29.10,0000 0000 0000 0000 000000
2016-02-09 06:38:43,0.02,3.02,0.00,18.71,22.77,26.66,14.79,48.38,1014.25,2050.99,2474.99,2424.82,2735.71,599.76,603.17,29.15,0000 0000 0000 0000 000000
2016-02-09 06:43:44,0.05,3.02,0.00,18.71,22.77,26.60,14.76,48.40,1014.28,2050.99,2474.53,2424.26,2735.12,600.37,603.77,29.20,0000 0000 0000 0000 000000
2016-02-09 06:48:46,0.01,3.02,0.00,18.71,22.77,26.65,14.77,48.49,1014.31,2050.99,2474.01,2424.02,2734.99,600.01,603.43,29.25,0000 0000 0000 0000 000000
2016-02-09 06:53:47,0.00,3.02,0.00,18.70,22.77,26.60,14.77,48.63,1014.54,2050.99,2473.96,2424.00,2734.89,599.86,603.46,29.30,0000 0000 0000 0000 000000
2016-02-09 06:58:48,0.03,3.02,0.00,18.73,22.77,26.67,14.78,48.40,1014.56,2050.99,2473.37,2423.95,2734.24,600.20,603.77,29.35,0000 0000 0000 0000 000000
2016-02-09 07:03:49,0.04,3.03,0.00,18.72,22.77,26.65,14.75,48.44,1014.63,2050.99,2473.02,2423.36,2734.01,600.22,603.83,29.40,0000 0000 0000 0000 000000
2016-02-09 07:08:51,0.00,3.03,0.00,18.72,22.78,26.66,14.76,48.61,1014.66,2050.99,2472.93,2423.05,2733.99,600.06,603.66,29.45,0000 0000 0000 0000 000000
2016-02-09 07:13:52,0.03,3.03,0.00,18.72,22.79,26.66,14.74,48.57,1014.58,2050.98,2472.23,2423.00,2733.66,599.92,603.55,29.50,0000 0000 0000 0000 000000
2016-02-09 07:18:53,0.01,3.03,0.00,18.72,22.79,26.67,14.74,48.45,1014.62,2050.99,2472.00,2422.89,2733.04,599.66,603.36,29.55,0000 0000 0000 0000 000000
2016-02-09 07:23:54,0.02,3.03,0.00,18.72,22.79,26.66,14.80,48.39,1014.66,2050.98,2471.94,2422.26,2733.00,600.17,603.70,29.60,0000 0000 0000 0000 000000
2016-02-09 07:28:56,0.03,3.03,0.00,18.72,22.80,26.68,14.84,48.68,1014.66,2050.99,2471.25,2422.03,2732.96,600.10,603.75,29.65,0000 0000 0000 0000 000000
2016-02-09 07:33:57,0.01,3.03,0.00,18.72,22.80,26.68,14.77,48.69,1014.66,2050.99,2471.00,2422.00,2732.32,600.07,603.68,29.70,0000 0000 0000 0000 000000
2016-02-09 07:38:58,0.01,3.03,0.00,18.73,22.81,26.64,14.75,48.58,1014.66,2050.98,2470.90,2421.97,2732.00,599.87,603.58,29.75,0000 0000 0000 0000 000000
2016-02-09 07:44:00,0.04,3.04,0.00,18.74,22.82,26.67,14.80,48.54,1014.66,2050.98,2470.29,2421.52,2731.99,600.28,603.88,29.80,0000 0000 0000 0000 000000
2016-02-09 07:49:01,0.02,3.04,0.00,18.72,22.82,26.69,14.68,48.51,1014.68,2050.98,2470.00,2421.04,2731.78,599.79,603.48,29.85,0000 0000 0000 0000 000000
2016-02-09 07:54:02,0.02,3.04,0.00,18.72,22.82,26.67,14.75,48.63,1014.69,2050.97,2469.78,2421.00,2731.07,599.71,603.24,29.90,0000 0000 0000 0000 000000
2016-02-09 07:59:03,0.02,3.04,0.00,18.72,22.82,26.70,14.73,48.58,1014.82,2050.98,2469.10,2420.93,2730.99,599.79,603.61,29.95,0000 0000 0000 0000 000000
2016-02-09 08:04:05,0.03,3.04,0.00,18.73,22.82,26.68,14.77,48.57,1014.92,2050.96,2468.99,2420.30,2730.82,599.85,603.51,30.00,0000 0000 0000 0000 000000
2016-02-09 08:09:06,0.03,3.04,0.00,18.73,22.84,26.68,14.80,48.52,1015.09,2050.90,2468.34,2420.02,2730.08,600.20,603.93,30.05,0000 0000 0000 0000 000000
2016-02-09 08:14:07,0.01,3.04,0.00,18.73,22.84,26.71,14.77,48.61,1015.15,2050.94,2468.00,2419.99,2730.00,599.75,603.51,30.10,0000 0000 0000 0000 000000
2016-02-09 08:19:08,0.01,3.04,0.00,18.74,22.84,26.69,14.76,48.65,1015.15,2050.94,2467.88,2419.82,2729.92,599.92,603.76,30.15,0000 0000 0000 0000 000000
2016-02-09 08:24:10,0.06,3.05,0.00,18.76,22.84,26.71,14.74,48.56,1015.15,2050.94,2467.14,2419.18,2729.28,599.83,603.63,30.20,0000 0000 0000 0000 000000
2016-02-09 08:29:11,0.00,3.05,0.00,18.75,22.84,26.70,14.82,48.68,1015.15,2050.94,2466.99,2419.02,2729.02,599.89,603.74,30.25,0000 0000 0000 0000 000000
2016-02-09 08:34:12,0.01,3.05,0.00,18.75,22.85,26.67,14.79,48.63,1015.15,2050.97,2466.74,2419.00,2728.99,600.00,603.79,30.30,0000 0000 0000 0000 000000
2016-02-09 08:39:14,0.04,3.05,0.00,18.74,22.85,26.70,14.82,48.52,1015.15,2050.92,2466.08,2418.70,2728.42,600.35,604.25,30.35,0000 0000 0000 0000 000000
2016-02-09 08:44:15,0.01,3.05,0.00,18.74,22.85,26.71,14.79,48.67,1015.16,2050.86,2465.99,2418.06,2728.00,599.97,603.78,30.40,0000 0000 0000 0000 000000
2016-02-09 08:49:16,0.03,3.05,0.00,18.76,22.85,26.68,14.84,48.44,1015.16,2050.89,2465.30,2417.99,2727.90,600.01,603.85,30.45,0000 0000 0000 0000 000000
2016-02-09 08:54:17,0.01,3.05,0.00,18.75,22.86,26.66,14.78,48.43,1015.18,2050.80,2465.00,2417.88,2727.15,600.27,604.21,30.50,0000 0000 0000 0000 000000
2016-02-09 08:59:19,0.04,3.06,0.00,18.75,22.86,26.74,14.74,48.56,1015.16,2050.85,2464.68,2417.21,2726.99,599.97,603.74,30.55,0000 0000 0000 0000 000000
2016-02-09 09:04:20,0.01,3.06,0.00,18.74,22.86,26.68,14.72,48.52,1015.15,2050.77,2464.02,2417.00,2726.73,600.08,603.92,30.60,0000 0000 0000 0000 000000
2016-02-09 09:09:21,0.02,3.06,0.00,18.73,22.85,26.72,14.78,48.61,1015.16,2050.64,2463.67,2416.83,2726.04,600.21,604.09,30.65,0000 0000 0000 0000 000000
2016-02-09 09:14:23,0.04,3.06,0.00,18.73,22.85,26.71,14.84,48.59,1015.16,2050.48,2463.01,2416.10,2725.87,600.24,604.03,30.71,0000 0000 0000 0000 000000
2016-02-09 09:19:24,0.05,3.06,0.00,18.72,22.84,26.73,14.74,48.79,1015.17,2050.77,2462.50,2416.00,2725.13,599.83,603.78,30.76,0000 0000 0000 0000 000000
2016-02-09 09:24:25,0.04,3.06,0.00,18.69,22.84,26.69,14.79,48.67,1015.18,2050.73,2461.97,2415.60,2724.86,599.94,603.92,30.81,0000 0000 0000 0000 000000
2016-02-09 09:29:27,0.04,3.07,0.00,18.68,22.83,26.72,14.79,48.63,1015.21,2050.71,2461.19,2415.02,2724.11,600.20,604.24,30.86,0000 0000 0000 0000 000000
2016-02-09 09:34:28,0.02,3.07,0.00,18.68,22.82,26.68,14.66,48.83,1015.18,2050.72,2460.84,2414.82,2723.98,599.78,603.79,30.91,0000 0000 0000 0000 000000
2016-02-09 09:39:29,0.08,3.07,0.00,18.65,22.82,26.67,14.79,48.83,1015.27,2050.81,2460.11,2414.10,2723.32,599.89,603.99,30.96,0000 0000 0000 0000 000000
2016-02-09 09:44:30,0.03,3.07,0.00,18.63,22.79,26.66,14.80,48.82,1015.40,2050.90,2459.52,2413.97,2722.93,599.93,604.20,31.01,0000 0000 0000 0000 000000
2016-02-09 09:49:31,0.06,3.08,0.00,18.62,22.79,26.63,14.78,48.84,1015.33,2050.94,2458.98,2413.29,2722.13,599.84,604.16,31.06,0000 0000 0000 0000 000000
2016-02-09 09:54:33,0.03,3.08,0.00,18.62,22.77,26.62,14.80,48.65,1015.29,2050.97,2458.22,2412.99,2721.93,600.13,604.33,31.11,0000 0000 0000 0000 000000
2016-02-09 09:59:34,0.04,3.08,0.00,18.62,22.77,26.61,14.87,48.81,1015.38,2050.98,2457.90,2412.68,2721.18,600.25,604.51,31.16,0000 0000 0000 0000 000000
2016-02-09 10:04:35,0.04,3.08,0.00,18.59,22.75,26.64,14.82,48.90,1015.36,2050.97,2457.09,2412.04,2720.98,600.01,604.29,31.21,0000 0000 0000 0000 000000
2016-02-09 10:09:36,0.04,3.09,0.00,18.59,22.74,26.61,14.80,48.84,1015.37,2050.98,2456.57,2411.97,2720.26,600.00,604.24,31.26,0000 0000 0000 0000 000000
2016-02-09 10:14:37,0.03,3.09,0.00,18.59,22.73,26.60,14.75,48.75,1015.32,2050.98,2456.03,2411.38,2720.00,600.04,604.37,31.31,0000 0000 0000 0000 000000
2016-02-09 10:19:39,0.03,3.09,0.00,18.57,22.72,26.67,14.80,48.87,1015.26,2050.99,2455.75,2411.02,2719.72,599.97,604.17,31.36,0000 0000 0000 0000 000000
2016-02-09 10:24:40,0.02,3.09,0.00,18.55,22.71,26.58,14.82,48.88,1015.31,2050.99,2455.04,2410.96,2719.06,599.93,604.27,31.41,0000 0000 0000 0000 000000
2016-02-09 10:29:41,0.06,3.09,0.00,18.54,22.69,26.61,14.87,48.87,1015.47,2050.99,2454.56,2410.24,2718.74,600.14,604.63,31.46,0000 0000 0000 0000 000000
2016-02-09 10:34:42,0.02,3.09,0.00,18.54,22.69,26.60,14.76,48.85,1015.55,2050.99,2454.01,2410.00,2718.05,600.01,604.54,31.51,0000 0000 0000 0000 000000
2016-02-09 10:39:43,0.01,3.10,0.00,18.54,22.67,26.57,14.80,48.77,1015.61,2050.99,2453.73,2409.91,2717.97,599.75,604.37,31.56,0000 0000 0000 0000 000000
2016-02-09 10:44:45,0.06,3.10,0.00,18.51,22.67,26.56,14.75,48.68,1015.50,2050.99,2453.01,2409.16,2717.36,599.85,604.44,31.61,0000 0000 0000 0000 000000
2016-02-09 10:49:46,0.02,3.10,0.00,18.49,22.65,26.51,14.82,48.73,1015.28,2050.99,2452.25,2409.00,2717.00,599.87,604.33,31.66,0000 0000 0000 0000 000000
2016-02-09 10:54:48,0.04,3.10,0.00,18.48,22.64,26.55,14.86,48.75,1015.35,2051.00,2451.99,2408.57,2716.46,600.02,604.47,31.71,0000 0000 0000 0000 000000
2016-02-09 10:59:49,0.03,3.10,0.00,18.47,22.63,26.57,14.71,48.69,1015.55,2051.01,2451.22,2408.02,2716.01,599.73,604.45,31.76,0000 0000 0000 0000 000000
2016-02-09 11:04:50,0.02,3.11,0.00,18.44,22.62,26.56,14.70,48.70,1015.55,2051.01,2450.96,2407.91,2715.57,599.82,604.48,31.81,0000 0000 0000 0000 000000
2016-02-09 11:09:52,0.06,3.11,0.00,18.43,22.61,26.52,14.82,48.67,1015.58,2051.01,2450.18,2407.15,2715.01,599.98,604.74,31.86,0000 0000 0000 0000 000000
2016-02-09 11:14:53,0.02,3.11,0.00,18.42,22.59,26.55,14.85,48.73,1015.63,2051.05,2449.81,2407.00,2714.69,600.21,605.08,31.91,0000 0000 0000 0000 000000
2016-02-09 11:19:54,0.05,3.11,0.00,18.41,22.59,26.52,14.85,48.78,1015.63,2051.05,2449.05,2406.67,2714.02,600.25,605.08,31.96,0000 0000 0000 0000 000000
2016-02-09 11:24:56,0.03,3.11,0.00,18.39,22.57,26.51,14.87,48.78,1015.63,2051.12,2448.50,2406.04,2713.91,600.17,604.94,32.01,0000 0000 0000 0000 000000
2016-02-09 11:29:57,0.03,3.12,0.00,18.39,22.56,26.46,14.80,48.73,1015.64,2051.19,2447.97,2405.99,2713.15,600.07,604.95,32.06,0000 0000 0000 0000 000000
2016-02-09 11:34:58,0.08,3.12,0.00,18.38,22.55,26.47,14.81,48.67,1015.64,2051.34,2447.15,2405.41,2712.92,599.77,604.64,32.11,0000 0000 0000 0000 000000
2016-02-09 11:40:00,0.02,3.12,0.00,18.35,22.54,26.46,14.76,48.52,1015.64,2051.42,2446.86,2405.00,2712.18,599.87,604.81,32.16,0000 0000 0000 0000 000000
2016-02-09 11:45:01,0.04,3.12,0.00,18.33,22.53,26.43,14.83,48.58,1015.65,2051.44,2446.07,2404.83,2711.98,600.31,605.38,32.21,0000 0000 0000 0000 000000
2016-02-09 11:50:02,0.07,3.13,0.00,18.33,22.52,26.41,14.74,48.38,1015.73,2051.71,2445.88,2404.14,2711.39,600.05,605.24,32.26,0000 0000 0000 0000 000000
2016-02-09 11:55:03,0.03,3.13,0.00,18.35,22.52,26.42,14.78,48.63,1015.85,2051.75,2445.11,2403.99,2711.00,599.86,605.08,32.31,0000 0000 0000 0000 000000
2016-02-09 12:00:05,0.05,3.13,0.00,18.35,22.50,26.41,14.82,48.58,1015.94,2051.89,2444.78,2403.72,2710.51,600.04,605.20,32.36,0000 0000 0000 0000 000000
2016-02-09 12:05:06,0.04,3.14,0.00,18.33,22.49,26.39,14.75,48.54,1016.03,2051.87,2444.04,2403.03,2710.01,599.92,605.17,32.41,0000 0000 0000 0000 000000
2016-02-09 12:10:07,0.03,3.14,0.00,18.31,22.49,26.36,14.83,48.52,1016.07,2051.79,2443.43,2402.91,2709.52,599.89,605.19,32.46,0000 0000 0000 0000 000000
2016-02-09 12:15:09,0.05,3.14,0.00,18.30,22.48,26.42,14.87,48.53,1016.06,2051.92,2442.91,2402.17,2709.00,600.17,605.45,32.51,0000 0000 0000 0000 000000
2016-02-09 12:20:10,0.04,3.14,0.00,18.29,22.47,26.34,14.86,48.48,1016.05,2051.98,2442.09,2402.00,2708.48,600.22,605.46,32.56,0000 0000 0000 0000 000000
2016-02-09 12:25:11,0.05,3.14,0.00,18.29,22.47,26.34,14.81,48.55,1016.11,2051.98,2441.52,2401.46,2708.00,600.13,605.46,32.62,0000 0000 0000 0000 000000
2016-02-09 12:30:12,0.03,3.15,0.00,18.29,22.46,26.31,14.81,48.50,1016.12,2051.96,2440.89,2401.00,2707.39,599.87,605.40,32.67,0000 0000 0000 0000 000000
2016-02-09 12:35:13,0.04,3.15,0.00,18.28,22.45,26.30,14.81,48.62,1016.11,2051.96,2440.10,2400.69,2707.00,600.14,605.39,32.72,0000 0000 0000 0000 000000
2016-02-09 12:40:15,0.06,3.15,0.00,18.27,22.44,26.34,14.91,48.65,1016.07,2051.98,2439.58,2400.02,2706.34,600.33,605.74,32.77,0000 0000 0000 0000 000000
2016-02-09 12:45:16,0.02,3.15,0.00,18.26,22.43,26.30,14.85,48.77,1016.09,2051.98,2438.97,2399.85,2705.95,600.15,605.57,32.82,0000 0000 0000 0000 000000
2016-02-09 12:50:17,0.07,3.16,0.00,18.26,22.42,26.32,14.78,48.66,1016.10,2051.98,2438.17,2399.10,2705.18,599.82,605.31,32.87,0000 0000 0000 0000 000000
2016-02-09 12:55:18,0.05,3.16,0.00,18.23,22.42,26.29,14.87,48.74,1016.07,2051.99,2437.51,2398.69,2704.72,599.96,605.55,32.92,0000 0000 0000 0000 000000